Time,TemperatureF,DewpointF,PressureIn,WindDirection,WindDirectionDegrees,WindSpeedMPH,WindSpeedGustMPH,Humidity,HourlyPrecipIn,Conditions,Clouds,dailyrainin,SoftwareType,DateUTC
2013-10-30 00:20:00,-999.0,-99.9,30.22,NE,52,0.0,-999.0,-999,-99.99,,,0.00,weatherlink.com 1.10,2013-10-30 04:20:00,
2013-10-30 00:32:00,-999.0,-99.9,30.22,NE,52,0.0,-999.0,-999,-99.99,,,0.00,weatherlink.com 1.10,2013-10-30 04:32:00,
2013-10-30 00:44:00,-999.0,-99.9,30.21,NE,52,0.0,-999.0,-999,-99.99,,,0.00,weatherlink.com 1.10,2013-10-30 04:44:00,
2013-10-30 00:59:00,-999.0,-99.9,30.20,NE,52,0.0,-999.0,-999,-99.99,,,0.00,weatherlink.com 1.10,2013-10-30 04:59:00,
2013-10-30 01:14:00,-999.0,-99.9,30.20,NE,52,0.0,-999.0,-999,-99.99,,,0.00,weatherlink.com 1.10,2013-10-30 05:14:00,
2013-10-30 01:29:00,-999.0,-99.9,30.19,NE,52,0.0,-999.0,-999,-99.99,,,0.00,weatherlink.com 1.10,2013-10-30 05:29:00,
2013-10-30 01:44:00,-999.0,-99.9,30.19,NE,52,0.0,-999.0,-999,-99.99,,,0.00,weatherlink.com 1.10,2013-10-30 05:44:00,
2013-10-30 01:59:00,-999.0,-99.9,30.19,NE,52,0.0,-999.0,-999,-99.99,,,0.00,weatherlink.com 1.10,2013-10-30 05:59:00,
2013-10-30 02:14:00,-999.0,-99.9,30.18,NE,52,0.0,-999.0,-999,-99.99,,,0.00,weatherlink.com 1.10,2013-10-30 06:14:00,
2013-10-30 02:29:00,-999.0,-99.9,30.18,NE,52,0.0,-999.0,-999,-99.99,,,0.00,weatherlink.com 1.10,2013-10-30 06:29:00,
2013-10-30 02:44:00,-999.0,-99.9,30.18,NE,52,0.0,-999.0,-999,-99.99,,,0.00,weatherlink.com 1.10,2013-10-30 06:44:00,
2013-10-30 02:59:00,-999.0,-99.9,30.18,NE,52,0.0,-999.0,-999,-99.99,,,0.00,weatherlink.com 1.10,2013-10-30 06:59:00,
2013-10-30 03:14:00,-999.0,-99.9,30.18,NE,52,0.0,-999.0,-999,-99.99,,,0.00,weatherlink.com 1.10,2013-10-30 07:14:00,
2013-10-30 03:29:00,-999.0,-99.9,30.17,NE,52,0.0,-999.0,-999,-99.99,,,0.00,weatherlink.com 1.10,2013-10-30 07:29:00,
2013-10-30 03:44:00,-999.0,-99.9,30.16,NE,52,0.0,-999.0,-999,-99.99,,,0.00,weatherlink.com 1.10,2013-10-30 07:44:00,
2013-10-30 03:59:00,-999.0,-99.9,30.16,NE,52,0.0,-999.0,-999,-99.99,,,0.00,weatherlink.com 1.10,2013-10-30 07:59:00,
2013-10-30 04:14:00,-999.0,-99.9,30.15,NE,52,0.0,-999.0,-999,-99.99,,,0.00,weatherlink.com 1.10,2013-10-30 08:14:00,
2013-10-30 04:29:00,-999.0,-99.9,30.15,NE,52,0.0,-999.0,-999,-99.99,,,0.00,weatherlink.com 1.10,2013-10-30 08:29:00,
2013-10-30 04:44:00,-999.0,-99.9,30.15,NE,52,0.0,-999.0,-999,-99.99,,,0.00,weatherlink.com 1.10,2013-10-30 08:44:00,
2013-10-30 04:59:00,-999.0,-99.9,30.15,NE,52,0.0,-999.0,-999,-99.99,,,0.00,weatherlink.com 1.10,2013-10-30 08:59:00,
2013-10-30 05:14:00,-999.0,-99.9,30.14,NE,52,0.0,-999.0,-999,-99.99,,,0.00,weatherlink.com 1.10,2013-10-30 09:14:00,
2013-10-30 05:29:00,-999.0,-99.9,30.14,NE,52,0.0,-999.0,-999,-99.99,,,0.00,weatherlink.com 1.10,2013-10-30 09:29:00,
2013-10-30 05:44:00,-999.0,-99.9,30.14,NE,52,0.0,-999.0,-999,-99.99,,,0.00,weatherlink.com 1.10,2013-10-30 09:44:00,
2013-10-30 05:59:00,-999.0,-99.9,30.14,NE,52,0.0,-999.0,-999,-99.99,,,0.00,weatherlink.com 1.10,2013-10-30 09:59:00,
2013-10-30 06:14:00,-999.0,-99.9,30.15,NE,52,0.0,-999.0,-999,-99.99,,,0.00,weatherlink.com 1.10,2013-10-30 10:14:00,
2013-10-30 06:29:00,-999.0,-99.9,30.16,NE,52,0.0,-999.0,-999,-99.99,,,0.00,weatherlink.com 1.10,2013-10-30 10:29:00,
2013-10-30 06:44:00,-999.0,-99.9,30.16,NE,52,0.0,-999.0,-999,-99.99,,,0.00,weatherlink.com 1.10,2013-10-30 10:44:00,
2013-10-30 06:59:00,-999.0,-99.9,30.14,NE,52,0.0,-999.0,-999,-99.99,,,0.00,weatherlink.com 1.10,2013-10-30 10:59:00,
2013-10-30 07:14:00,-999.0,-99.9,30.14,NE,52,0.0,-999.0,-999,-99.99,,,0.00,weatherlink.com 1.10,2013-10-30 11:14:00,
2013-10-30 07:29:00,-999.0,-99.9,30.14,NE,52,0.0,-999.0,-999,-99.99,,,0.00,weatherlink.com 1.10,2013-10-30 11:29:00,
2013-10-30 07:44:00,-999.0,-99.9,30.14,NE,52,0.0,-999.0,-999,-99.99,,,0.00,weatherlink.com 1.10,2013-10-30 11:44:00,
2013-10-30 07:59:00,-999.0,-99.9,30.14,NE,52,0.0,-999.0,-999,-99.99,,,0.00,weatherlink.com 1.10,2013-10-30 11:59:00,
2013-10-30 08:14:00,-999.0,-99.9,30.14,NE,52,0.0,-999.0,-999,-99.99,,,0.00,weatherlink.com 1.10,2013-10-30 12:14:00,
2013-10-30 08:29:00,-999.0,-99.9,30.15,NE,52,0.0,-999.0,-999,-99.99,,,0.00,weatherlink.com 1.10,2013-10-30 12:29:00,
2013-10-30 08:44:00,-999.0,-99.9,30.15,NE,52,0.0,-999.0,-999,-99.99,,,0.00,weatherlink.com 1.10,2013-10-30 12:44:00,
2013-10-30 08:59:00,-999.0,-99.9,30.15,NE,52,0.0,-999.0,-999,-99.99,,,0.00,weatherlink.com 1.10,2013-10-30 12:59:00,
2013-10-30 09:14:00,-999.0,-99.9,30.15,NE,52,0.0,-999.0,-999,-99.99,,,0.00,weatherlink.com 1.10,2013-10-30 13:14:00,
2013-10-30 09:29:00,-999.0,-99.9,30.14,NE,52,0.0,-999.0,-999,-99.99,,,0.00,weatherlink.com 1.10,2013-10-30 13:29:00,
2013-10-30 09:44:00,-999.0,-99.9,30.14,NE,52,0.0,-999.0,-999,-99.99,,,0.00,weatherlink.com 1.10,2013-10-30 13:44:00,
2013-10-30 09:59:00,-999.0,-99.9,30.14,NE,52,0.0,-999.0,-999,-99.99,,,0.00,weatherlink.com 1.10,2013-10-30 13:59:00,
2013-10-30 10:14:00,-999.0,-99.9,30.14,NE,52,0.0,-999.0,-999,-99.99,,,0.00,weatherlink.com 1.10,2013-10-30 14:14:00,
2013-10-30 10:29:00,-999.0,-99.9,30.14,NE,52,0.0,-999.0,-999,-99.99,,,0.00,weatherlink.com 1.10,2013-10-30 14:29:00,
2013-10-30 10:59:00,-999.0,-99.9,30.14,NE,52,0.0,-999.0,-999,-99.99,,,0.00,weatherlink.com 1.10,2013-10-30 14:59:00,
2013-10-30 11:14:00,-999.0,-99.9,30.14,NE,52,0.0,-999.0,-999,-99.99,,,0.00,weatherlink.com 1.10,2013-10-30 15:14:00,
2013-10-30 11:29:00,-999.0,-99.9,30.14,NE,52,0.0,-999.0,-999,-99.99,,,0.00,weatherlink.com 1.10,2013-10-30 15:29:00,
2013-10-30 11:44:00,-999.0,-99.9,30.13,NE,52,0.0,-999.0,-999,-99.99,,,0.00,weatherlink.com 1.10,2013-10-30 15:44:00,
2013-10-30 11:59:00,-999.0,-99.9,30.13,NE,52,0.0,-999.0,-999,-99.99,,,0.00,weatherlink.com 1.10,2013-10-30 15:59:00,
2013-10-30 12:14:00,-999.0,-99.9,30.12,NE,52,0.0,-999.0,-999,-99.99,,,0.00,weatherlink.com 1.10,2013-10-30 16:14:00,
2013-10-30 12:29:00,40.9,40.0,30.11,NE,52,0.0,-999.0,95,-99.99,,,0.00,weatherlink.com 1.10,2013-10-30 16:29:00,
2013-10-30 12:44:00,42.2,41.0,30.11,NE,52,0.0,-999.0,95,-99.99,,,0.00,weatherlink.com 1.10,2013-10-30 16:44:00,
2013-10-30 12:59:00,43.3,41.0,30.10,NE,52,1.0,-999.0,92,-99.99,,,0.00,weatherlink.com 1.10,2013-10-30 16:59:00,
2013-10-30 13:14:00,44.8,41.0,30.09,ENE,78,0.0,-999.0,85,-99.99,,,0.00,weatherlink.com 1.10,2013-10-30 17:14:00,
2013-10-30 13:29:00,46.2,40.0,30.08,ENE,78,0.0,-999.0,80,-99.99,,,0.00,weatherlink.com 1.10,2013-10-30 17:29:00,
2013-10-30 13:44:00,47.3,40.0,30.08,NE,42,0.0,-999.0,75,-99.99,,,0.00,weatherlink.com 1.10,2013-10-30 17:44:00,
2013-10-30 13:59:00,48.2,40.0,30.08,NE,42,0.0,-999.0,72,-99.99,,,0.00,weatherlink.com 1.10,2013-10-30 17:59:00,
2013-10-30 14:14:00,49.1,40.0,30.07,NE,42,0.0,-999.0,72,-99.99,,,0.00,weatherlink.com 1.10,2013-10-30 18:14:00,
2013-10-30 14:29:00,49.9,40.0,30.07,NNW,331,0.0,-999.0,69,-99.99,,,0.00,weatherlink.com 1.10,2013-10-30 18:29:00,
2013-10-30 14:44:00,50.5,40.0,30.07,NW,323,0.0,-999.0,67,-99.99,,,0.00,weatherlink.com 1.10,2013-10-30 18:44:00,
2013-10-30 14:59:00,51.0,40.0,30.06,NW,323,0.0,-999.0,66,-99.99,,,0.00,weatherlink.com 1.10,2013-10-30 18:59:00,
2013-10-30 15:14:00,51.4,41.0,30.05,NW,324,0.0,-999.0,67,-99.99,,,0.00,weatherlink.com 1.10,2013-10-30 19:14:00,
2013-10-30 15:29:00,51.7,41.0,30.05,East,91,0.0,-999.0,66,-99.99,,,0.00,weatherlink.com 1.10,2013-10-30 19:29:00,
2013-10-30 15:44:00,51.9,40.0,30.05,WNW,298,0.0,-999.0,64,-99.99,,,0.00,weatherlink.com 1.10,2013-10-30 19:44:00,
2013-10-30 15:59:00,52.0,41.0,30.05,WNW,300,0.0,-999.0,66,-99.99,,,0.00,weatherlink.com 1.10,2013-10-30 19:59:00,
2013-10-30 16:13:00,52.0,40.0,30.05,WNW,300,0.0,-999.0,65,-99.99,,,0.00,weatherlink.com 1.10,2013-10-30 20:13:00,
2013-10-30 16:44:00,51.7,41.0,30.05,SW,221,0.0,-999.0,66,-99.99,,,0.00,weatherlink.com 1.10,2013-10-30 20:44:00,
2013-10-30 16:58:00,51.6,40.0,30.05,East,99,0.0,-999.0,66,-99.99,,,0.00,weatherlink.com 1.10,2013-10-30 20:58:00,
2013-10-30 17:13:00,-999.0,-99.9,30.05,East,99,0.0,-999.0,-999,-99.99,,,0.00,weatherlink.com 1.10,2013-10-30 21:13:00,
2013-10-30 17:28:00,-999.0,-99.9,30.05,East,99,0.0,-999.0,-999,-99.99,,,0.00,weatherlink.com 1.10,2013-10-30 21:28:00,
2013-10-30 17:43:00,-999.0,-99.9,30.05,East,99,0.0,-999.0,-999,-99.99,,,0.00,weatherlink.com 1.10,2013-10-30 21:43:00,
2013-10-30 17:58:00,-999.0,-99.9,30.05,East,99,0.0,-999.0,-999,-99.99,,,0.00,weatherlink.com 1.10,2013-10-30 21:58:00,
2013-10-30 18:14:00,-999.0,-99.9,30.05,East,99,0.0,-999.0,-999,-99.99,,,0.00,weatherlink.com 1.10,2013-10-30 22:14:00,
2013-10-30 18:29:00,-999.0,-99.9,30.06,East,99,0.0,-999.0,-999,-99.99,,,0.00,weatherlink.com 1.10,2013-10-30 22:29:00,
2013-10-30 18:44:00,-999.0,-99.9,30.07,East,99,0.0,-999.0,-999,-99.99,,,0.00,weatherlink.com 1.10,2013-10-30 22:44:00,
2013-10-30 18:59:00,-999.0,-99.9,30.07,East,99,0.0,-999.0,-999,-99.99,,,0.00,weatherlink.com 1.10,2013-10-30 22:59:00,
2013-10-30 19:14:00,-999.0,-99.9,30.07,East,99,0.0,-999.0,-999,-99.99,,,0.00,weatherlink.com 1.10,2013-10-30 23:14:00,
2013-10-30 19:29:00,-999.0,-99.9,30.08,East,99,0.0,-999.0,-999,-99.99,,,0.00,weatherlink.com 1.10,2013-10-30 23:29:00,
2013-10-30 19:44:00,-999.0,-99.9,30.08,East,99,0.0,-999.0,-999,-99.99,,,0.00,weatherlink.com 1.10,2013-10-30 23:44:00,
2013-10-30 19:59:00,-999.0,-99.9,30.08,East,99,0.0,-999.0,-999,-99.99,,,0.00,weatherlink.com 1.10,2013-10-30 23:59:00,
2013-10-30 20:14:00,-999.0,-99.9,30.09,East,99,0.0,-999.0,-999,-99.99,,,0.00,weatherlink.com 1.10,2013-10-31 00:14:00,
2013-10-30 20:29:00,-999.0,-99.9,30.09,East,99,0.0,-999.0,-999,-99.99,,,0.00,weatherlink.com 1.10,2013-10-31 00:29:00,
2013-10-30 20:44:00,-999.0,-99.9,30.08,East,99,0.0,-999.0,-999,-99.99,,,0.00,weatherlink.com 1.10,2013-10-31 00:44:00,
2013-10-30 20:59:00,-999.0,-99.9,30.09,East,99,0.0,-999.0,-999,-99.99,,,0.00,weatherlink.com 1.10,2013-10-31 00:59:00,
2013-10-30 21:14:00,-999.0,-99.9,30.09,East,99,0.0,-999.0,-999,-99.99,,,0.00,weatherlink.com 1.10,2013-10-31 01:14:00,
2013-10-30 21:29:00,-999.0,-99.9,30.08,East,99,0.0,-999.0,-999,-99.99,,,0.00,weatherlink.com 1.10,2013-10-31 01:29:00,
2013-10-30 21:44:00,-999.0,-99.9,30.08,East,99,0.0,-999.0,-999,-99.99,,,0.00,weatherlink.com 1.10,2013-10-31 01:44:00,
2013-10-30 21:59:00,-999.0,-99.9,30.09,East,99,0.0,-999.0,-999,-99.99,,,0.00,weatherlink.com 1.10,2013-10-31 01:59:00,
2013-10-30 22:14:00,-999.0,-99.9,30.09,East,99,0.0,-999.0,-999,-99.99,,,0.00,weatherlink.com 1.10,2013-10-31 02:14:00,
2013-10-30 22:29:00,-999.0,-99.9,30.09,East,99,0.0,-999.0,-999,-99.99,,,0.00,weatherlink.com 1.10,2013-10-31 02:29:00,
2013-10-30 22:44:00,-999.0,-99.9,30.09,East,99,0.0,-999.0,-999,-99.99,,,0.00,weatherlink.com 1.10,2013-10-31 02:44:00,
2013-10-30 22:59:00,-999.0,-99.9,30.09,East,99,0.0,-999.0,-999,-99.99,,,0.00,weatherlink.com 1.10,2013-10-31 02:59:00,
2013-10-30 23:14:00,-999.0,-99.9,30.09,East,99,0.0,-999.0,-999,-99.99,,,0.00,weatherlink.com 1.10,2013-10-31 03:14:00,
2013-10-30 23:29:00,-999.0,-99.9,30.09,East,99,0.0,-999.0,-999,-99.99,,,0.00,weatherlink.com 1.10,2013-10-31 03:29:00,
2013-10-30 23:44:00,-999.0,-99.9,30.08,East,99,0.0,-999.0,-999,-99.99,,,0.00,weatherlink.com 1.10,2013-10-31 03:44:00,
2013-10-30 23:59:00,-999.0,-99.9,30.09,East,99,0.0,-999.0,-999,-99.99,,,0.00,weatherlink.com 1.10,2013-10-31 03:59:00,